Year,Month,Day,Hour,Minute,Value (Times are PST for temperature in C)
2016,05,03,00,00,13.10
2016,05,03,00,01,13.10
2016,05,03,00,02,13.10
2016,05,03,00,03,13.10
2016,05,03,00,04,13.10
2016,05,03,00,05,13.10
2016,05,03,00,06,13.10
2016,05,03,00,07,13.10
2016,05,03,00,08,13.10
2016,05,03,00,09,13.10
2016,05,03,00,10,13.20
2016,05,03,00,11,13.20
2016,05,03,00,12,13.20
2016,05,03,00,13,13.20
2016,05,03,00,14,13.20
2016,05,03,00,15,13.20
2016,05,03,00,16,13.20
2016,05,03,00,17,13.30
2016,05,03,00,18,13.30
2016,05,03,00,19,13.30
2016,05,03,00,20,13.30
2016,05,03,00,21,13.40
2016,05,03,00,22,13.40
2016,05,03,00,23,13.40
2016,05,03,00,24,13.50
2016,05,03,00,25,13.50
2016,05,03,00,26,13.60
2016,05,03,00,27,13.60
2016,05,03,00,28,13.60
2016,05,03,00,29,13.70
2016,05,03,00,30,13.70
2016,05,03,00,31,13.80
2016,05,03,00,32,13.80
2016,05,03,00,33,13.90
2016,05,03,00,34,13.90
2016,05,03,00,35,13.90
2016,05,03,00,36,14.00
2016,05,03,00,37,14.00
2016,05,03,00,38,14.00
2016,05,03,00,39,14.00
2016,05,03,00,40,14.00
2016,05,03,00,41,14.10
2016,05,03,00,42,14.10
2016,05,03,00,43,14.10
2016,05,03,00,44,14.10
2016,05,03,00,45,14.10
2016,05,03,00,46,14.10
2016,05,03,00,47,14.10
2016,05,03,00,48,14.20
2016,05,03,00,49,14.20
2016,05,03,00,50,14.20
2016,05,03,00,51,14.20
2016,05,03,00,52,14.20
2016,05,03,00,53,14.30
2016,05,03,00,54,14.30
2016,05,03,00,55,14.40
2016,05,03,00,56,14.40
2016,05,03,00,57,14.50
2016,05,03,00,58,14.60
2016,05,03,00,59,14.70
2016,05,03,01,00,14.70
2016,05,03,01,01,14.80
2016,05,03,01,02,14.80
2016,05,03,01,03,14.80
2016,05,03,01,04,14.70
2016,05,03,01,05,14.60
2016,05,03,01,06,14.50
2016,05,03,01,07,14.40
2016,05,03,01,08,14.40
2016,05,03,01,09,14.30
2016,05,03,01,10,14.30
2016,05,03,01,11,14.20
2016,05,03,01,12,14.20
2016,05,03,01,13,14.20
2016,05,03,01,14,14.10
2016,05,03,01,15,14.10
2016,05,03,01,16,14.10
2016,05,03,01,17,14.10
2016,05,03,01,18,14.10
2016,05,03,01,19,14.10
2016,05,03,01,20,14.10
2016,05,03,01,21,14.10
2016,05,03,01,22,14.00
2016,05,03,01,23,14.00
2016,05,03,01,24,14.00
2016,05,03,01,25,14.00
2016,05,03,01,26,13.90
2016,05,03,01,27,13.90
2016,05,03,01,28,13.90
2016,05,03,01,29,13.80
2016,05,03,01,30,13.80
2016,05,03,01,31,13.80
2016,05,03,01,32,13.80
2016,05,03,01,33,13.80
2016,05,03,01,34,13.80
2016,05,03,01,35,13.80
2016,05,03,01,36,13.90
2016,05,03,01,37,13.90
2016,05,03,01,38,13.90
2016,05,03,01,39,13.90
2016,05,03,01,40,14.00
2016,05,03,01,41,14.00
2016,05,03,01,42,14.00
2016,05,03,01,43,14.10
2016,05,03,01,44,14.10
2016,05,03,01,45,14.20
2016,05,03,01,46,14.20
2016,05,03,01,47,14.10
2016,05,03,01,48,14.10
2016,05,03,01,49,14.10
2016,05,03,01,50,14.00
2016,05,03,01,51,14.00
2016,05,03,01,52,13.90
2016,05,03,01,53,13.90
2016,05,03,01,54,13.90
2016,05,03,01,55,13.90
2016,05,03,01,56,13.90
2016,05,03,01,57,13.90
2016,05,03,01,58,13.90
2016,05,03,01,59,13.90
2016,05,03,02,00,14.00
2016,05,03,02,01,14.00
2016,05,03,02,02,14.00
2016,05,03,02,03,14.00
2016,05,03,02,04,14.00
2016,05,03,02,05,13.90
2016,05,03,02,06,13.90
2016,05,03,02,07,13.80
2016,05,03,02,08,13.80
2016,05,03,02,09,13.80
2016,05,03,02,10,13.80
2016,05,03,02,11,13.80
2016,05,03,02,12,13.90
2016,05,03,02,13,14.00
2016,05,03,02,14,14.10
2016,05,03,02,15,14.20
2016,05,03,02,16,14.30
2016,05,03,02,17,14.40
2016,05,03,02,18,14.50
2016,05,03,02,19,14.70
2016,05,03,02,20,14.80
2016,05,03,02,21,14.80
2016,05,03,02,22,14.80
2016,05,03,02,23,14.80
2016,05,03,02,24,14.80
2016,05,03,02,25,14.80
2016,05,03,02,26,14.70
2016,05,03,02,27,14.70
2016,05,03,02,28,14.60
2016,05,03,02,29,14.50
2016,05,03,02,30,14.50
2016,05,03,02,31,14.40
2016,05,03,02,32,14.40
2016,05,03,02,33,14.40
2016,05,03,02,34,14.30
2016,05,03,02,35,14.40
2016,05,03,02,36,14.50
2016,05,03,02,37,14.70
2016,05,03,02,38,14.90
2016,05,03,02,39,15.00
2016,05,03,02,40,15.00
2016,05,03,02,41,15.10
2016,05,03,02,42,15.10
2016,05,03,02,43,15.00
2016,05,03,02,44,15.00
2016,05,03,02,45,14.90
2016,05,03,02,46,14.90
2016,05,03,02,47,15.00
2016,05,03,02,48,14.90
2016,05,03,02,49,14.90
2016,05,03,02,50,14.90
2016,05,03,02,51,14.80
2016,05,03,02,52,14.80
2016,05,03,02,53,14.80
2016,05,03,02,54,14.70
2016,05,03,02,55,14.60
2016,05,03,02,56,14.40
2016,05,03,02,57,14.20
2016,05,03,02,58,14.00
2016,05,03,02,59,14.00
2016,05,03,03,00,14.00
2016,05,03,03,01,13.90
2016,05,03,03,02,13.90
2016,05,03,03,03,13.90
2016,05,03,03,04,13.90
2016,05,03,03,05,13.90
2016,05,03,03,06,13.90
2016,05,03,03,07,13.90
2016,05,03,03,08,13.90
2016,05,03,03,09,13.80
2016,05,03,03,10,13.80
2016,05,03,03,11,13.70
2016,05,03,03,12,13.60
2016,05,03,03,13,13.60
2016,05,03,03,14,13.50
2016,05,03,03,15,13.40
2016,05,03,03,16,13.40
2016,05,03,03,17,13.30
2016,05,03,03,18,13.30
2016,05,03,03,19,13.30
2016,05,03,03,20,13.30
2016,05,03,03,21,13.30
2016,05,03,03,22,13.20
2016,05,03,03,23,13.20
2016,05,03,03,24,13.20
2016,05,03,03,25,13.20
2016,05,03,03,26,13.30
2016,05,03,03,27,13.30
2016,05,03,03,28,13.30
2016,05,03,03,29,13.40
2016,05,03,03,30,13.40
2016,05,03,03,31,13.50
2016,05,03,03,32,13.50
2016,05,03,03,33,13.60
2016,05,03,03,34,13.60
2016,05,03,03,35,13.60
2016,05,03,03,36,13.60
2016,05,03,03,37,13.70
2016,05,03,03,38,13.70
2016,05,03,03,39,13.70
2016,05,03,03,40,13.70
2016,05,03,03,41,13.70
2016,05,03,03,42,13.80
2016,05,03,03,43,13.90
2016,05,03,03,44,13.90
2016,05,03,03,45,14.00
2016,05,03,03,46,14.10
2016,05,03,03,47,14.10
2016,05,03,03,48,14.20
2016,05,03,03,49,14.20
2016,05,03,03,50,14.20
2016,05,03,03,51,14.20
2016,05,03,03,52,14.20
2016,05,03,03,53,14.20
2016,05,03,03,54,14.20
2016,05,03,03,55,14.20
2016,05,03,03,56,14.20
2016,05,03,03,57,14.20
2016,05,03,03,58,14.20
2016,05,03,03,59,14.20
2016,05,03,04,00,14.20
2016,05,03,04,01,14.20
2016,05,03,04,02,14.20
2016,05,03,04,03,14.20
2016,05,03,04,04,14.20
2016,05,03,04,05,14.30
2016,05,03,04,06,14.30
2016,05,03,04,07,14.30
2016,05,03,04,08,14.30
2016,05,03,04,09,14.40
2016,05,03,04,10,14.40
2016,05,03,04,11,14.40
2016,05,03,04,12,14.40
2016,05,03,04,13,14.40
2016,05,03,04,14,14.40
2016,05,03,04,15,14.40
2016,05,03,04,16,14.40
2016,05,03,04,17,14.40
2016,05,03,04,18,14.40
2016,05,03,04,19,14.40
2016,05,03,04,20,14.40
2016,05,03,04,21,14.30
2016,05,03,04,22,14.30
2016,05,03,04,23,14.30
2016,05,03,04,24,14.30
2016,05,03,04,25,14.20
2016,05,03,04,26,14.20
2016,05,03,04,27,14.20
2016,05,03,04,28,14.20
2016,05,03,04,29,14.20
2016,05,03,04,30,14.20
2016,05,03,04,31,14.20
2016,05,03,04,32,14.20
2016,05,03,04,33,14.20
2016,05,03,04,34,14.20
2016,05,03,04,35,14.30
2016,05,03,04,36,14.30
2016,05,03,04,37,14.30
2016,05,03,04,38,14.30
2016,05,03,04,39,14.30
2016,05,03,04,40,14.30
2016,05,03,04,41,14.30
2016,05,03,04,42,14.30
2016,05,03,04,43,14.40
2016,05,03,04,44,14.40
2016,05,03,04,45,14.30
2016,05,03,04,46,14.30
2016,05,03,04,47,14.30
2016,05,03,04,48,14.30
2016,05,03,04,49,14.20
2016,05,03,04,50,14.20
2016,05,03,04,51,14.20
2016,05,03,04,52,14.20
2016,05,03,04,53,14.20
2016,05,03,04,54,14.10
2016,05,03,04,55,14.10
2016,05,03,04,56,14.10
2016,05,03,04,57,14.00
2016,05,03,04,58,14.00
2016,05,03,04,59,13.90
2016,05,03,05,00,13.90
2016,05,03,05,01,13.90
2016,05,03,05,02,14.00
2016,05,03,05,03,14.00
2016,05,03,05,04,14.00
2016,05,03,05,05,14.00
2016,05,03,05,06,14.00
2016,05,03,05,07,14.00
2016,05,03,05,08,14.00
2016,05,03,05,09,14.00
2016,05,03,05,10,14.00
2016,05,03,05,11,14.10
2016,05,03,05,12,14.10
2016,05,03,05,13,14.10
2016,05,03,05,14,14.10
2016,05,03,05,15,14.20
2016,05,03,05,16,14.20
2016,05,03,05,17,14.20
2016,05,03,05,18,14.20
2016,05,03,05,19,14.20
2016,05,03,05,20,14.20
2016,05,03,05,21,14.20
2016,05,03,05,22,14.30
2016,05,03,05,23,14.30
2016,05,03,05,24,14.30
2016,05,03,05,25,14.30
2016,05,03,05,26,14.30
2016,05,03,05,27,14.30
2016,05,03,05,28,14.30
2016,05,03,05,29,14.30
2016,05,03,05,30,14.30
2016,05,03,05,31,14.30
2016,05,03,05,32,14.30
2016,05,03,05,33,14.30
2016,05,03,05,34,14.30
2016,05,03,05,35,14.40
2016,05,03,05,36,14.40
2016,05,03,05,37,14.40
2016,05,03,05,38,14.40
2016,05,03,05,39,14.40
2016,05,03,05,40,14.40
2016,05,03,05,41,14.40
2016,05,03,05,42,14.40
2016,05,03,05,43,14.40
2016,05,03,05,44,14.40
2016,05,03,05,45,14.40
2016,05,03,05,46,14.40
2016,05,03,05,47,14.40
2016,05,03,05,48,14.40
2016,05,03,05,49,14.40
2016,05,03,05,50,14.40
2016,05,03,05,51,14.40
2016,05,03,05,52,14.40
2016,05,03,05,53,14.40
2016,05,03,05,54,14.50
2016,05,03,05,55,14.50
2016,05,03,05,56,14.60
2016,05,03,05,57,14.60
2016,05,03,05,58,14.60
2016,05,03,05,59,14.70
2016,05,03,06,00,14.70
2016,05,03,06,01,14.70
2016,05,03,06,02,14.80
2016,05,03,06,03,14.80
2016,05,03,06,04,14.80
2016,05,03,06,05,14.80
2016,05,03,06,06,14.80
2016,05,03,06,07,14.80
2016,05,03,06,08,14.80
2016,05,03,06,09,14.80
2016,05,03,06,10,14.80
2016,05,03,06,11,14.70
2016,05,03,06,12,14.70
2016,05,03,06,13,14.70
2016,05,03,06,14,14.70
2016,05,03,06,15,14.60
2016,05,03,06,16,14.60
2016,05,03,06,17,14.60
2016,05,03,06,18,14.60
2016,05,03,06,19,14.60
2016,05,03,06,20,14.60
2016,05,03,06,21,14.60
2016,05,03,06,22,14.60
2016,05,03,06,23,14.60
2016,05,03,06,24,14.60
2016,05,03,06,25,14.60
2016,05,03,06,26,14.60
2016,05,03,06,27,14.60
2016,05,03,06,28,14.60
2016,05,03,06,29,14.60
2016,05,03,06,30,14.60
2016,05,03,06,31,14.60
2016,05,03,06,32,14.60
2016,05,03,06,33,14.60
2016,05,03,06,34,14.60
2016,05,03,06,35,14.60
2016,05,03,06,36,14.60
2016,05,03,06,37,14.60
2016,05,03,06,38,14.60
2016,05,03,06,39,14.60
2016,05,03,06,40,14.70
2016,05,03,06,41,14.60
2016,05,03,06,42,14.70
2016,05,03,06,43,14.70
2016,05,03,06,44,14.70
2016,05,03,06,45,14.60
2016,05,03,06,46,14.60
2016,05,03,06,47,14.70
2016,05,03,06,48,14.70
2016,05,03,06,49,14.70
2016,05,03,06,50,14.70
2016,05,03,06,51,14.70
2016,05,03,06,52,14.70
2016,05,03,06,53,14.70
2016,05,03,06,54,14.70
2016,05,03,06,55,14.70
2016,05,03,06,56,14.80
2016,05,03,06,57,14.80
2016,05,03,06,58,14.80
2016,05,03,06,59,14.80
2016,05,03,07,00,14.90
2016,05,03,07,01,14.90
2016,05,03,07,02,14.90
2016,05,03,07,03,14.90
2016,05,03,07,04,14.90
2016,05,03,07,05,15.00
2016,05,03,07,06,15.00
2016,05,03,07,07,15.00
2016,05,03,07,08,15.00
2016,05,03,07,09,15.10
2016,05,03,07,10,15.10
2016,05,03,07,11,15.10
2016,05,03,07,12,15.10
2016,05,03,07,13,15.10
2016,05,03,07,14,15.10
2016,05,03,07,15,15.10
2016,05,03,07,16,15.10
2016,05,03,07,17,15.20
2016,05,03,07,18,15.20
2016,05,03,07,19,15.20
2016,05,03,07,20,15.20
2016,05,03,07,21,15.20
2016,05,03,07,22,15.20
2016,05,03,07,23,15.20
2016,05,03,07,24,15.20
2016,05,03,07,25,15.20
2016,05,03,07,26,15.20
2016,05,03,07,27,15.30
2016,05,03,07,28,15.30
2016,05,03,07,29,15.30
2016,05,03,07,30,15.30
2016,05,03,07,31,15.30
2016,05,03,07,32,15.30
2016,05,03,07,33,15.30
2016,05,03,07,34,15.30
2016,05,03,07,35,15.30
2016,05,03,07,36,15.30
2016,05,03,07,37,15.40
2016,05,03,07,38,15.40
2016,05,03,07,39,15.50
2016,05,03,07,40,15.50
2016,05,03,07,41,15.60
2016,05,03,07,42,15.60
2016,05,03,07,43,15.60
2016,05,03,07,44,15.70
2016,05,03,07,45,15.70
2016,05,03,07,46,15.70
2016,05,03,07,47,15.70
2016,05,03,07,48,15.70
2016,05,03,07,49,15.70
2016,05,03,07,50,15.70
2016,05,03,07,51,15.70
2016,05,03,07,52,15.80
2016,05,03,07,53,15.80
2016,05,03,07,54,15.80
2016,05,03,07,55,15.70
2016,05,03,07,56,15.60
2016,05,03,07,57,15.50
2016,05,03,07,58,15.40
2016,05,03,07,59,15.30
2016,05,03,08,00,15.30
2016,05,03,08,01,15.20
2016,05,03,08,02,15.10
2016,05,03,08,03,15.10
2016,05,03,08,04,15.00
2016,05,03,08,05,14.90
2016,05,03,08,06,14.90
2016,05,03,08,07,14.80
2016,05,03,08,08,14.80
2016,05,03,08,09,14.70
2016,05,03,08,10,14.70
2016,05,03,08,11,14.60
2016,05,03,08,12,14.60
2016,05,03,08,13,14.60
2016,05,03,08,14,14.60
2016,05,03,08,15,14.50
2016,05,03,08,16,14.40
2016,05,03,08,17,14.30
2016,05,03,08,18,14.30
2016,05,03,08,19,14.30
2016,05,03,08,20,14.20
2016,05,03,08,21,14.20
2016,05,03,08,22,14.20
2016,05,03,08,23,14.20
2016,05,03,08,24,14.30
2016,05,03,08,25,14.30
2016,05,03,08,26,14.30
2016,05,03,08,27,14.30
2016,05,03,08,28,14.30
2016,05,03,08,29,14.30
2016,05,03,08,30,14.30
2016,05,03,08,31,14.40
2016,05,03,08,32,14.40
2016,05,03,08,33,14.40
2016,05,03,08,34,14.50
2016,05,03,08,35,14.50
2016,05,03,08,36,14.50
2016,05,03,08,37,14.50
2016,05,03,08,38,14.50
2016,05,03,08,39,14.50
2016,05,03,08,40,14.50
2016,05,03,08,41,14.50
2016,05,03,08,42,14.50
2016,05,03,08,43,14.50
2016,05,03,08,44,14.60
2016,05,03,08,45,14.60
2016,05,03,08,46,14.70
2016,05,03,08,47,14.80
2016,05,03,08,48,14.80
2016,05,03,08,49,14.80
2016,05,03,08,50,14.80
2016,05,03,08,51,14.80
2016,05,03,08,52,14.80
2016,05,03,08,53,14.80
2016,05,03,08,54,14.80
2016,05,03,08,55,14.80
2016,05,03,08,56,14.80
2016,05,03,08,57,14.80
2016,05,03,08,58,14.80
2016,05,03,08,59,14.80
2016,05,03,09,00,14.80
2016,05,03,09,01,14.80
2016,05,03,09,02,14.80
2016,05,03,09,03,14.80
2016,05,03,09,04,14.90
2016,05,03,09,05,15.00
2016,05,03,09,06,15.00
2016,05,03,09,07,15.10
2016,05,03,09,08,15.10
2016,05,03,09,09,15.20
2016,05,03,09,10,15.20
2016,05,03,09,11,15.20
2016,05,03,09,12,15.00
2016,05,03,09,13,14.80
2016,05,03,09,14,14.50
2016,05,03,09,15,14.30
2016,05,03,09,16,14.20
2016,05,03,09,17,14.00
2016,05,03,09,18,13.90
2016,05,03,09,19,13.80
2016,05,03,09,20,13.70
2016,05,03,09,21,13.70
2016,05,03,09,22,13.60
2016,05,03,09,23,13.60
2016,05,03,09,24,13.60
2016,05,03,09,25,13.60
2016,05,03,09,26,13.60
2016,05,03,09,27,13.70
2016,05,03,09,28,13.80
2016,05,03,09,29,13.90
2016,05,03,09,30,14.00
2016,05,03,09,31,14.00
2016,05,03,09,32,14.10
2016,05,03,09,33,14.10
2016,05,03,09,34,14.00
2016,05,03,09,35,14.10
2016,05,03,09,36,14.10
2016,05,03,09,37,14.10
2016,05,03,09,38,14.10
2016,05,03,09,39,14.10
2016,05,03,09,40,14.10
2016,05,03,09,41,14.10
2016,05,03,09,42,14.10
2016,05,03,09,43,14.10
2016,05,03,09,44,14.10
2016,05,03,09,45,14.10
2016,05,03,09,46,14.10
2016,05,03,09,47,14.10
2016,05,03,09,48,14.20
2016,05,03,09,49,14.30
2016,05,03,09,50,14.40
2016,05,03,09,51,14.50
2016,05,03,09,52,14.60
2016,05,03,09,53,14.70
2016,05,03,09,54,14.80
2016,05,03,09,55,14.90
2016,05,03,09,56,15.00
2016,05,03,09,57,15.10
2016,05,03,09,58,15.20
2016,05,03,09,59,15.30
2016,05,03,10,00,15.40
2016,05,03,10,01,15.50
2016,05,03,10,02,15.60
2016,05,03,10,03,15.70
2016,05,03,10,04,15.80
2016,05,03,10,05,15.90
2016,05,03,10,06,16.10
2016,05,03,10,07,16.20
2016,05,03,10,08,16.40
2016,05,03,10,09,16.50
2016,05,03,10,10,16.60
2016,05,03,10,11,16.70
2016,05,03,10,12,16.80
2016,05,03,10,13,16.90
2016,05,03,10,14,17.00
2016,05,03,10,15,17.10
2016,05,03,10,16,17.20
2016,05,03,10,17,17.20
2016,05,03,10,18,17.20
2016,05,03,10,19,17.20
2016,05,03,10,20,17.20
2016,05,03,10,21,17.10
2016,05,03,10,22,17.00
2016,05,03,10,23,16.90
2016,05,03,10,24,16.80
2016,05,03,10,25,16.70
2016,05,03,10,26,16.60
2016,05,03,10,27,16.40
2016,05,03,10,28,16.30
2016,05,03,10,29,16.10
2016,05,03,10,30,15.90
2016,05,03,10,31,15.70
2016,05,03,10,32,15.70
2016,05,03,10,33,15.60
2016,05,03,10,34,15.60
2016,05,03,10,35,15.50
2016,05,03,10,36,15.30
2016,05,03,10,37,15.20
2016,05,03,10,38,15.20
2016,05,03,10,39,15.10
2016,05,03,10,40,15.00
2016,05,03,10,41,15.00
2016,05,03,10,42,15.00
2016,05,03,10,43,15.10
2016,05,03,10,44,15.10
2016,05,03,10,45,15.20
2016,05,03,10,46,15.30
2016,05,03,10,47,15.40
2016,05,03,10,48,15.50
2016,05,03,10,49,15.70
2016,05,03,10,50,15.80
2016,05,03,10,51,15.90
2016,05,03,10,52,16.00
2016,05,03,10,53,16.00
2016,05,03,10,54,16.10
2016,05,03,10,55,16.10
2016,05,03,10,56,16.20
2016,05,03,10,57,16.30
2016,05,03,10,58,16.30
2016,05,03,10,59,16.40
2016,05,03,11,00,16.40
2016,05,03,11,01,16.50
2016,05,03,11,02,16.50
2016,05,03,11,03,16.60
2016,05,03,11,04,16.60
2016,05,03,11,05,16.70
2016,05,03,11,06,16.80
2016,05,03,11,07,16.90
2016,05,03,11,08,16.90
2016,05,03,11,09,16.90
2016,05,03,11,10,17.00
2016,05,03,11,11,17.10
2016,05,03,11,12,17.10
2016,05,03,11,13,17.10
2016,05,03,11,14,17.10
2016,05,03,11,15,17.10
2016,05,03,11,16,17.10
2016,05,03,11,17,17.00
2016,05,03,11,18,16.90
2016,05,03,11,19,16.80
2016,05,03,11,20,16.80
2016,05,03,11,21,16.70
2016,05,03,11,22,16.70
2016,05,03,11,23,16.80
2016,05,03,11,24,16.80
2016,05,03,11,25,16.90
2016,05,03,11,26,17.00
2016,05,03,11,27,17.10
2016,05,03,11,28,17.20
2016,05,03,11,29,17.20
2016,05,03,11,30,17.30
2016,05,03,11,31,17.30
2016,05,03,11,32,17.30
2016,05,03,11,33,17.30
2016,05,03,11,34,17.30
2016,05,03,11,35,17.40
2016,05,03,11,36,17.50
2016,05,03,11,37,17.50
2016,05,03,11,38,17.60
2016,05,03,11,39,17.60
2016,05,03,11,40,17.70
2016,05,03,11,41,17.70
2016,05,03,11,42,17.80
2016,05,03,11,43,17.90
2016,05,03,11,44,17.90
2016,05,03,11,45,18.00
2016,05,03,11,46,18.00
2016,05,03,11,47,18.10
2016,05,03,11,48,18.20
2016,05,03,11,49,18.30
2016,05,03,11,50,18.40
2016,05,03,11,51,18.50
2016,05,03,11,52,18.60
2016,05,03,11,53,18.60
2016,05,03,11,54,18.70
2016,05,03,11,55,18.80
2016,05,03,11,56,18.80
2016,05,03,11,57,18.80
2016,05,03,11,58,18.80
2016,05,03,11,59,18.80
2016,05,03,12,00,18.80
2016,05,03,12,01,18.70
2016,05,03,12,02,18.70
2016,05,03,12,03,18.60
2016,05,03,12,04,18.60
2016,05,03,12,05,18.60
2016,05,03,12,06,18.60
2016,05,03,12,07,18.60
2016,05,03,12,08,18.60
2016,05,03,12,09,18.60
2016,05,03,12,10,18.60
2016,05,03,12,11,18.60
2016,05,03,12,12,18.60
2016,05,03,12,13,18.70
2016,05,03,12,14,18.70
2016,05,03,12,15,18.80
2016,05,03,12,16,18.80
2016,05,03,12,17,18.90
2016,05,03,12,18,18.90
2016,05,03,12,19,19.00
2016,05,03,12,20,19.10
2016,05,03,12,21,19.10
2016,05,03,12,22,19.10
2016,05,03,12,23,19.10
2016,05,03,12,24,19.00
2016,05,03,12,25,18.90
2016,05,03,12,26,18.90
2016,05,03,12,27,18.90
2016,05,03,12,28,18.90
2016,05,03,12,29,18.80
2016,05,03,12,30,18.70
2016,05,03,12,31,18.70
2016,05,03,12,32,18.70
2016,05,03,12,33,18.70
2016,05,03,12,34,18.70
2016,05,03,12,35,18.80
2016,05,03,12,36,18.80
2016,05,03,12,37,18.70
2016,05,03,12,38,18.60
2016,05,03,12,39,18.40
2016,05,03,12,40,18.30
2016,05,03,12,41,18.20
2016,05,03,12,42,18.20
2016,05,03,12,43,18.20
2016,05,03,12,44,18.30
2016,05,03,12,45,18.30
2016,05,03,12,46,18.30
2016,05,03,12,47,18.20
2016,05,03,12,48,18.00
2016,05,03,12,49,17.80
2016,05,03,12,50,17.70
2016,05,03,12,51,17.60
2016,05,03,12,52,17.60
2016,05,03,12,53,17.60
2016,05,03,12,54,17.70
2016,05,03,12,55,17.70
2016,05,03,12,56,17.70
2016,05,03,12,57,17.70
2016,05,03,12,58,17.70
2016,05,03,12,59,17.70
2016,05,03,13,00,17.90
2016,05,03,13,01,18.00
2016,05,03,13,02,18.20
2016,05,03,13,03,18.20
2016,05,03,13,04,18.10
2016,05,03,13,05,17.80
2016,05,03,13,06,17.60
2016,05,03,13,07,17.50
2016,05,03,13,08,17.40
2016,05,03,13,09,17.50
2016,05,03,13,10,17.50
2016,05,03,13,11,17.60
2016,05,03,13,12,17.60
2016,05,03,13,13,17.60
2016,05,03,13,14,17.50
2016,05,03,13,15,17.40
2016,05,03,13,16,17.30
2016,05,03,13,17,17.30
2016,05,03,13,18,17.40
2016,05,03,13,19,17.40
2016,05,03,13,20,17.30
2016,05,03,13,21,17.20
2016,05,03,13,22,17.20
2016,05,03,13,23,17.30
2016,05,03,13,24,17.40
2016,05,03,13,25,17.50
2016,05,03,13,26,17.40
2016,05,03,13,27,17.40
2016,05,03,13,28,17.40
2016,05,03,13,29,17.40
2016,05,03,13,30,17.50
2016,05,03,13,31,17.60
2016,05,03,13,32,17.70
2016,05,03,13,33,17.70
2016,05,03,13,34,17.70
2016,05,03,13,35,17.70
2016,05,03,13,36,17.80
2016,05,03,13,37,17.80
2016,05,03,13,38,17.80
2016,05,03,13,39,17.80
2016,05,03,13,40,17.80
2016,05,03,13,41,17.90
2016,05,03,13,42,17.90
2016,05,03,13,43,17.90
2016,05,03,13,44,17.90
2016,05,03,13,45,17.80
2016,05,03,13,46,17.80
2016,05,03,13,47,17.70
2016,05,03,13,48,17.80
2016,05,03,13,49,17.90
2016,05,03,13,50,17.90
2016,05,03,13,51,17.90
2016,05,03,13,52,17.90
2016,05,03,13,53,17.80
2016,05,03,13,54,17.80
2016,05,03,13,55,17.80
2016,05,03,13,56,17.90
2016,05,03,13,57,17.90
2016,05,03,13,58,17.90
2016,05,03,13,59,17.90
2016,05,03,14,00,18.00
2016,05,03,14,01,18.00
2016,05,03,14,02,17.90
2016,05,03,14,03,17.80
2016,05,03,14,04,17.60
2016,05,03,14,05,17.60
2016,05,03,14,06,17.60
2016,05,03,14,07,17.60
2016,05,03,14,08,17.60
2016,05,03,14,09,17.60
2016,05,03,14,10,17.70
2016,05,03,14,11,17.60
2016,05,03,14,12,17.60
2016,05,03,14,13,17.60
2016,05,03,14,14,17.60
2016,05,03,14,15,17.60
2016,05,03,14,16,17.50
2016,05,03,14,17,17.50
2016,05,03,14,18,17.50
2016,05,03,14,19,17.40
2016,05,03,14,20,17.50
2016,05,03,14,21,17.50
2016,05,03,14,22,17.50
2016,05,03,14,23,17.60
2016,05,03,14,24,17.50
2016,05,03,14,25,17.40
2016,05,03,14,26,17.40
2016,05,03,14,27,17.40
2016,05,03,14,28,17.40
2016,05,03,14,29,17.40
2016,05,03,14,30,17.40
2016,05,03,14,31,17.40
2016,05,03,14,32,17.40
2016,05,03,14,33,17.40
2016,05,03,14,34,17.40
2016,05,03,14,35,17.30
2016,05,03,14,36,17.30
2016,05,03,14,37,17.30
2016,05,03,14,38,17.30
2016,05,03,14,39,17.30
2016,05,03,14,40,17.20
2016,05,03,14,41,17.20
2016,05,03,14,42,17.20
2016,05,03,14,43,17.10
2016,05,03,14,44,17.10
2016,05,03,14,45,17.10
2016,05,03,14,46,17.10
2016,05,03,14,47,17.10
2016,05,03,14,48,17.00
2016,05,03,14,49,17.00
2016,05,03,14,50,17.00
2016,05,03,14,51,17.00
2016,05,03,14,52,16.90
2016,05,03,14,53,17.00
2016,05,03,14,54,17.00
2016,05,03,14,55,17.00
2016,05,03,14,56,17.10
2016,05,03,14,57,17.20
2016,05,03,14,58,17.10
2016,05,03,14,59,17.10
2016,05,03,15,00,17.10
2016,05,03,15,01,17.10
2016,05,03,15,02,17.00
2016,05,03,15,03,16.90
2016,05,03,15,04,17.00
2016,05,03,15,05,17.00
2016,05,03,15,06,17.00
2016,05,03,15,07,17.00
2016,05,03,15,08,17.00
2016,05,03,15,09,16.90
2016,05,03,15,10,16.90
2016,05,03,15,11,17.00
2016,05,03,15,12,17.00
2016,05,03,15,13,17.10
2016,05,03,15,14,17.20
2016,05,03,15,15,17.20
2016,05,03,15,16,17.20
2016,05,03,15,17,17.20
2016,05,03,15,18,17.20
2016,05,03,15,19,17.20
2016,05,03,15,20,17.20
2016,05,03,15,21,17.10
2016,05,03,15,22,17.10
2016,05,03,15,23,17.10
2016,05,03,15,24,17.10
2016,05,03,15,25,17.10
2016,05,03,15,26,17.20
2016,05,03,15,27,17.20
2016,05,03,15,28,17.20
2016,05,03,15,29,17.20
2016,05,03,15,30,17.20
2016,05,03,15,31,17.20
2016,05,03,15,32,17.20
2016,05,03,15,33,17.30
2016,05,03,15,34,17.30
2016,05,03,15,35,17.40
2016,05,03,15,36,17.40
2016,05,03,15,37,17.50
2016,05,03,15,38,17.50
2016,05,03,15,39,17.50
2016,05,03,15,40,17.60
2016,05,03,15,41,17.60
2016,05,03,15,42,17.60
2016,05,03,15,43,17.60
2016,05,03,15,44,17.70
2016,05,03,15,45,17.70
2016,05,03,15,46,17.60
2016,05,03,15,47,17.60
2016,05,03,15,48,17.50
2016,05,03,15,49,17.50
2016,05,03,15,50,17.40
2016,05,03,15,51,17.40
2016,05,03,15,52,17.40
2016,05,03,15,53,17.40
2016,05,03,15,54,17.40
2016,05,03,15,55,17.40
2016,05,03,15,56,17.40
2016,05,03,15,57,17.40
2016,05,03,15,58,17.40
2016,05,03,15,59,17.40
2016,05,03,16,00,17.40
2016,05,03,16,01,17.40
2016,05,03,16,02,17.40
2016,05,03,16,03,17.40
2016,05,03,16,04,17.40
2016,05,03,16,05,17.50
2016,05,03,16,06,17.50
2016,05,03,16,07,17.50
2016,05,03,16,08,17.50
2016,05,03,16,09,17.50
2016,05,03,16,10,17.50
2016,05,03,16,11,17.50
2016,05,03,16,12,17.50
2016,05,03,16,13,17.50
2016,05,03,16,14,17.50
2016,05,03,16,15,17.50
2016,05,03,16,16,17.50
2016,05,03,16,17,17.40
2016,05,03,16,18,17.40
2016,05,03,16,19,17.50
2016,05,03,16,20,17.40
2016,05,03,16,21,17.50
2016,05,03,16,22,17.50
2016,05,03,16,23,17.50
2016,05,03,16,24,17.50
2016,05,03,16,25,17.40
2016,05,03,16,26,17.40
2016,05,03,16,27,17.40
2016,05,03,16,28,17.40
2016,05,03,16,29,17.40
2016,05,03,16,30,17.30
2016,05,03,16,31,17.30
2016,05,03,16,32,17.30
2016,05,03,16,33,17.30
2016,05,03,16,34,17.20
2016,05,03,16,35,17.20
2016,05,03,16,36,17.10
2016,05,03,16,37,17.10
2016,05,03,16,38,17.00
2016,05,03,16,39,17.00
2016,05,03,16,40,17.00
2016,05,03,16,41,17.00
2016,05,03,16,42,16.90
2016,05,03,16,43,16.90
2016,05,03,16,44,16.80
2016,05,03,16,45,16.80
2016,05,03,16,46,16.70
2016,05,03,16,47,16.70
2016,05,03,16,48,16.60
2016,05,03,16,49,16.60
2016,05,03,16,50,16.50
2016,05,03,16,51,16.40
2016,05,03,16,52,16.30
2016,05,03,16,53,16.30
2016,05,03,16,54,16.30
2016,05,03,16,55,16.30
2016,05,03,16,56,16.30
2016,05,03,16,57,16.30
2016,05,03,16,58,16.30
2016,05,03,16,59,16.30
2016,05,03,17,00,16.30
2016,05,03,17,01,16.20
2016,05,03,17,02,16.20
2016,05,03,17,03,16.20
2016,05,03,17,04,16.20
2016,05,03,17,05,16.20
2016,05,03,17,06,16.20
2016,05,03,17,07,16.30
2016,05,03,17,08,16.30
2016,05,03,17,09,16.20
2016,05,03,17,10,16.10
2016,05,03,17,11,16.10
2016,05,03,17,12,16.10
2016,05,03,17,13,16.00
2016,05,03,17,14,16.00
2016,05,03,17,15,15.90
2016,05,03,17,16,15.80
2016,05,03,17,17,15.80
2016,05,03,17,18,15.70
2016,05,03,17,19,15.60